Year,Month,Day,Hour,Minute,Value (Times are PST for temperature in C)
2010,07,10,00,00,19.10
2010,07,10,00,01,19.10
2010,07,10,00,02,19.10
2010,07,10,00,03,19.10
2010,07,10,00,04,19.10
2010,07,10,00,05,19.10
2010,07,10,00,06,19.10
2010,07,10,00,07,19.10
2010,07,10,00,08,19.10
2010,07,10,00,09,19.10
2010,07,10,00,10,19.00
2010,07,10,00,11,18.90
2010,07,10,00,12,18.90
2010,07,10,00,13,18.90
2010,07,10,00,14,19.10
2010,07,10,00,15,19.10
2010,07,10,00,16,19.10
2010,07,10,00,17,19.10
2010,07,10,00,18,19.10
2010,07,10,00,19,19.10
2010,07,10,00,20,19.10
2010,07,10,00,21,19.10
2010,07,10,00,22,19.00
2010,07,10,00,23,18.90
2010,07,10,00,24,18.90
2010,07,10,00,25,18.90
2010,07,10,00,26,18.90
2010,07,10,00,27,18.90
2010,07,10,00,28,19.10
2010,07,10,00,29,19.10
2010,07,10,00,30,19.10
2010,07,10,00,31,19.10
2010,07,10,00,32,19.10
2010,07,10,00,33,19.10
2010,07,10,00,34,19.10
2010,07,10,00,35,19.10
2010,07,10,00,36,19.00
2010,07,10,00,37,18.90
2010,07,10,00,38,18.90
2010,07,10,00,39,18.90
2010,07,10,00,40,18.90
2010,07,10,00,41,18.90
2010,07,10,00,42,18.90
2010,07,10,00,43,18.90
2010,07,10,00,44,18.90
2010,07,10,00,45,18.90
2010,07,10,00,46,18.90
2010,07,10,00,47,18.90
2010,07,10,00,48,18.90
2010,07,10,00,49,18.90
2010,07,10,00,50,18.90
2010,07,10,00,51,18.90
2010,07,10,00,52,18.90
2010,07,10,00,53,18.90
2010,07,10,00,54,18.80
2010,07,10,00,55,18.80
2010,07,10,00,56,18.80
2010,07,10,00,57,18.80
2010,07,10,00,58,18.80
2010,07,10,00,59,18.80
2010,07,10,01,00,18.80
2010,07,10,01,01,18.80
2010,07,10,01,02,18.70
2010,07,10,01,03,18.70
2010,07,10,01,04,18.70
2010,07,10,01,05,18.70
2010,07,10,01,06,18.70
2010,07,10,01,07,18.70
2010,07,10,01,08,18.70
2010,07,10,01,09,18.60
2010,07,10,01,10,18.60
2010,07,10,01,11,18.60
2010,07,10,01,12,18.60
2010,07,10,01,13,18.50
2010,07,10,01,14,18.50
2010,07,10,01,15,18.50
2010,07,10,01,16,18.50
2010,07,10,01,17,18.50
2010,07,10,01,18,18.40
2010,07,10,01,19,18.40
2010,07,10,01,20,18.40
2010,07,10,01,21,18.30
2010,07,10,01,22,18.30
2010,07,10,01,23,18.30
2010,07,10,01,24,18.30
2010,07,10,01,25,18.20
2010,07,10,01,26,18.20
2010,07,10,01,27,18.20
2010,07,10,01,28,18.20
2010,07,10,01,29,18.20
2010,07,10,01,30,18.10
2010,07,10,01,31,18.10
2010,07,10,01,32,18.10
2010,07,10,01,33,18.10
2010,07,10,01,34,18.00
2010,07,10,01,35,17.90
2010,07,10,01,36,17.90
2010,07,10,01,37,17.90
2010,07,10,01,38,17.90
2010,07,10,01,39,17.90
2010,07,10,01,40,17.90
2010,07,10,01,41,17.80
2010,07,10,01,42,17.80
2010,07,10,01,43,17.80
2010,07,10,01,44,17.70
2010,07,10,01,45,17.70
2010,07,10,01,46,17.60
2010,07,10,01,47,17.60
2010,07,10,01,48,17.50
2010,07,10,01,49,17.50
2010,07,10,01,50,17.50
2010,07,10,01,51,17.40
2010,07,10,01,52,17.40
2010,07,10,01,53,17.40
2010,07,10,01,54,17.40
2010,07,10,01,55,17.40
2010,07,10,01,56,17.30
2010,07,10,01,57,17.30
2010,07,10,01,58,17.30
2010,07,10,01,59,17.30
2010,07,10,02,00,17.30
2010,07,10,02,01,17.30
2010,07,10,02,02,17.30
2010,07,10,02,03,17.30
2010,07,10,02,04,17.30
2010,07,10,02,05,17.30
2010,07,10,02,06,17.30
2010,07,10,02,07,17.20
2010,07,10,02,08,17.20
2010,07,10,02,09,17.10
2010,07,10,02,10,17.10
2010,07,10,02,11,17.10
2010,07,10,02,12,17.00
2010,07,10,02,13,17.00
2010,07,10,02,14,16.90
2010,07,10,02,15,16.90
2010,07,10,02,16,16.90
2010,07,10,02,17,16.80
2010,07,10,02,18,16.80
2010,07,10,02,19,16.80
2010,07,10,02,20,16.70
2010,07,10,02,21,16.70
2010,07,10,02,22,16.70
2010,07,10,02,23,16.70
2010,07,10,02,24,16.70
2010,07,10,02,25,16.70
2010,07,10,02,26,16.70
2010,07,10,02,27,16.70
2010,07,10,02,28,16.70
2010,07,10,02,29,16.60
2010,07,10,02,30,16.60
2010,07,10,02,31,16.60
2010,07,10,02,32,16.60
2010,07,10,02,33,16.60
2010,07,10,02,34,16.50
2010,07,10,02,35,16.40
2010,07,10,02,36,16.40
2010,07,10,02,37,16.40
2010,07,10,02,38,16.40
2010,07,10,02,39,16.40
2010,07,10,02,40,16.40
2010,07,10,02,41,16.40
2010,07,10,02,42,16.40
2010,07,10,02,43,16.40
2010,07,10,02,44,16.40
2010,07,10,02,45,16.30
2010,07,10,02,46,16.30
2010,07,10,02,47,16.30
2010,07,10,02,48,16.20
2010,07,10,02,49,16.20
2010,07,10,02,50,16.20
2010,07,10,02,51,16.20
2010,07,10,02,52,16.10
2010,07,10,02,53,16.10
2010,07,10,02,54,16.10
2010,07,10,02,55,16.10
2010,07,10,02,56,16.10
2010,07,10,02,57,16.00
2010,07,10,02,58,15.90
2010,07,10,02,59,15.90
2010,07,10,03,00,15.90
2010,07,10,03,01,15.90
2010,07,10,03,02,15.90
2010,07,10,03,03,15.80
2010,07,10,03,04,15.80
2010,07,10,03,05,15.80
2010,07,10,03,06,15.80
2010,07,10,03,07,15.80
2010,07,10,03,08,15.80
2010,07,10,03,09,15.80
2010,07,10,03,10,15.80
2010,07,10,03,11,15.80
2010,07,10,03,12,15.80
2010,07,10,03,13,15.80
2010,07,10,03,14,15.80
2010,07,10,03,15,15.80
2010,07,10,03,16,15.80
2010,07,10,03,17,15.80
2010,07,10,03,18,15.80
2010,07,10,03,19,15.80
2010,07,10,03,20,15.80
2010,07,10,03,21,15.80
2010,07,10,03,22,15.80
2010,07,10,03,23,15.80
2010,07,10,03,24,15.80
2010,07,10,03,25,15.80
2010,07,10,03,26,15.80
2010,07,10,03,27,15.80
2010,07,10,03,28,15.80
2010,07,10,03,29,15.80
2010,07,10,03,30,15.80
2010,07,10,03,31,15.80
2010,07,10,03,32,15.80
2010,07,10,03,33,15.80
2010,07,10,03,34,15.80
2010,07,10,03,35,15.80
2010,07,10,03,36,15.80
2010,07,10,03,37,15.80
2010,07,10,03,38,15.80
2010,07,10,03,39,15.80
2010,07,10,03,40,15.80
2010,07,10,03,41,15.80
2010,07,10,03,42,15.80
2010,07,10,03,43,15.80
2010,07,10,03,44,15.80
2010,07,10,03,45,15.80
2010,07,10,03,46,15.80
2010,07,10,03,47,15.80
2010,07,10,03,48,15.80
2010,07,10,03,49,15.80
2010,07,10,03,50,15.80
2010,07,10,03,51,15.70
2010,07,10,03,52,15.70
2010,07,10,03,53,15.70
2010,07,10,03,54,15.70
2010,07,10,03,55,15.70
2010,07,10,03,56,15.70
2010,07,10,03,57,15.70
2010,07,10,03,58,15.60
2010,07,10,03,59,15.60
2010,07,10,04,00,15.60
2010,07,10,04,01,15.60
2010,07,10,04,02,15.60
2010,07,10,04,03,15.50
2010,07,10,04,04,15.50
2010,07,10,04,05,15.50
2010,07,10,04,06,15.50
2010,07,10,04,07,15.50
2010,07,10,04,08,15.50
2010,07,10,04,09,15.50
2010,07,10,04,10,15.40
2010,07,10,04,11,15.40
2010,07,10,04,12,15.40
2010,07,10,04,13,15.40
2010,07,10,04,14,15.40
2010,07,10,04,15,15.40
2010,07,10,04,16,15.40
2010,07,10,04,17,15.30
2010,07,10,04,18,15.30
2010,07,10,04,19,15.30
2010,07,10,04,20,15.30
2010,07,10,04,21,15.30
2010,07,10,04,22,15.30
2010,07,10,04,23,15.30
2010,07,10,04,24,15.30
2010,07,10,04,25,15.30
2010,07,10,04,26,15.30
2010,07,10,04,27,15.30
2010,07,10,04,28,15.30
2010,07,10,04,29,15.20
2010,07,10,04,30,15.20
2010,07,10,04,31,15.20
2010,07,10,04,32,15.20
2010,07,10,04,33,15.20
2010,07,10,04,34,15.10
2010,07,10,04,35,15.10
2010,07,10,04,36,15.10
2010,07,10,04,37,15.10
2010,07,10,04,38,15.10
2010,07,10,04,39,15.10
2010,07,10,04,40,15.10
2010,07,10,04,41,15.10
2010,07,10,04,42,15.10
2010,07,10,04,43,15.10
2010,07,10,04,44,15.10
2010,07,10,04,45,15.10
2010,07,10,04,46,15.00
2010,07,10,04,47,15.00
2010,07,10,04,48,15.00
2010,07,10,04,49,15.00
2010,07,10,04,50,15.00
2010,07,10,04,51,15.00
2010,07,10,04,52,15.00
2010,07,10,04,53,15.00
2010,07,10,04,54,15.00
2010,07,10,04,55,15.00
2010,07,10,04,56,15.00
2010,07,10,04,57,14.90
2010,07,10,04,58,14.90
2010,07,10,04,59,14.90
2010,07,10,05,00,14.90
2010,07,10,05,01,14.90
2010,07,10,05,02,14.90
2010,07,10,05,03,14.90
2010,07,10,05,04,14.90
2010,07,10,05,05,14.90
2010,07,10,05,06,14.90
2010,07,10,05,07,14.90
2010,07,10,05,08,14.90
2010,07,10,05,09,14.90
2010,07,10,05,10,14.80
2010,07,10,05,11,14.80
2010,07,10,05,12,14.80
2010,07,10,05,13,14.80
2010,07,10,05,14,14.80
2010,07,10,05,15,14.80
2010,07,10,05,16,14.80
2010,07,10,05,17,14.80
2010,07,10,05,18,14.80
2010,07,10,05,19,14.80
2010,07,10,05,20,14.80
2010,07,10,05,21,14.70
2010,07,10,05,22,14.70
2010,07,10,05,23,14.70
2010,07,10,05,24,14.70
2010,07,10,05,25,14.70
2010,07,10,05,26,14.70
2010,07,10,05,27,14.60
2010,07,10,05,28,14.60
2010,07,10,05,29,14.60
2010,07,10,05,30,14.60
2010,07,10,05,31,14.60
2010,07,10,05,32,14.60
2010,07,10,05,33,14.60
2010,07,10,05,34,14.50
2010,07,10,05,35,14.50
2010,07,10,05,36,14.50
2010,07,10,05,37,14.50
2010,07,10,05,38,14.50
2010,07,10,05,39,14.50
2010,07,10,05,40,14.50
2010,07,10,05,41,14.50
2010,07,10,05,42,14.50
2010,07,10,05,43,14.50
2010,07,10,05,44,14.50
2010,07,10,05,45,14.50
2010,07,10,05,46,14.50
2010,07,10,05,47,14.50
2010,07,10,05,48,14.50
2010,07,10,05,49,14.40
2010,07,10,05,50,14.40
2010,07,10,05,51,14.40
2010,07,10,05,52,14.40
2010,07,10,05,53,14.40
2010,07,10,05,54,14.40
2010,07,10,05,55,14.40
2010,07,10,05,56,14.40
2010,07,10,05,57,14.40
2010,07,10,05,58,14.40
2010,07,10,05,59,14.40
2010,07,10,06,00,14.40
2010,07,10,06,01,14.30
2010,07,10,06,02,14.30
2010,07,10,06,03,14.30
2010,07,10,06,04,14.30
2010,07,10,06,05,14.30
2010,07,10,06,06,14.30
2010,07,10,06,07,14.30
2010,07,10,06,08,14.30
2010,07,10,06,09,14.30
2010,07,10,06,10,14.30
2010,07,10,06,11,14.30
2010,07,10,06,12,14.30
2010,07,10,06,13,14.30
2010,07,10,06,14,14.30
2010,07,10,06,15,14.30
2010,07,10,06,16,14.30
2010,07,10,06,17,14.30
2010,07,10,06,18,14.30
2010,07,10,06,19,14.20
2010,07,10,06,20,14.20
2010,07,10,06,21,14.20
2010,07,10,06,22,14.20
2010,07,10,06,23,14.20
2010,07,10,06,24,14.20
2010,07,10,06,25,14.20
2010,07,10,06,26,14.20
2010,07,10,06,27,14.20
2010,07,10,06,28,14.20
2010,07,10,06,29,14.20
2010,07,10,06,30,14.20
2010,07,10,06,31,14.20
2010,07,10,06,32,14.20
2010,07,10,06,33,14.20
2010,07,10,06,34,14.20
2010,07,10,06,35,14.20
2010,07,10,06,36,14.20
2010,07,10,06,37,14.20
2010,07,10,06,38,14.20
2010,07,10,06,39,14.20
2010,07,10,06,40,14.20
2010,07,10,06,41,14.20
2010,07,10,06,42,14.30
2010,07,10,06,43,14.30
2010,07,10,06,44,14.30
2010,07,10,06,45,14.30
2010,07,10,06,46,14.30
2010,07,10,06,47,14.30
2010,07,10,06,48,14.30
2010,07,10,06,49,14.30
2010,07,10,06,50,14.30
2010,07,10,06,51,14.40
2010,07,10,06,52,14.40
2010,07,10,06,53,14.40
2010,07,10,06,54,14.40
2010,07,10,06,55,14.40
2010,07,10,06,56,14.40
2010,07,10,06,57,14.50
2010,07,10,06,58,14.50
2010,07,10,06,59,14.60
2010,07,10,07,00,14.60
2010,07,10,07,01,14.60
2010,07,10,07,02,14.70
2010,07,10,07,03,14.70
2010,07,10,07,04,14.70
2010,07,10,07,05,14.80
2010,07,10,07,06,14.80
2010,07,10,07,07,14.80
2010,07,10,07,08,14.80
2010,07,10,07,09,14.90
2010,07,10,07,10,14.90
2010,07,10,07,11,14.90
2010,07,10,07,12,14.90
2010,07,10,07,13,15.00
2010,07,10,07,14,15.00
2010,07,10,07,15,15.00
2010,07,10,07,16,15.10
2010,07,10,07,17,15.10
2010,07,10,07,18,15.20
2010,07,10,07,19,15.20
2010,07,10,07,20,15.20
2010,07,10,07,21,15.30
2010,07,10,07,22,15.30
2010,07,10,07,23,15.30
2010,07,10,07,24,15.30
2010,07,10,07,25,15.40
2010,07,10,07,26,15.50
2010,07,10,07,27,15.50
2010,07,10,07,28,15.50
2010,07,10,07,29,15.60
2010,07,10,07,30,15.60
2010,07,10,07,31,15.70
2010,07,10,07,32,15.70
2010,07,10,07,33,15.80
2010,07,10,07,34,15.80
2010,07,10,07,35,15.80
2010,07,10,07,36,15.80
2010,07,10,07,37,15.90
2010,07,10,07,38,16.00
2010,07,10,07,39,16.10
2010,07,10,07,40,16.10
2010,07,10,07,41,16.10
2010,07,10,07,42,16.20
2010,07,10,07,43,16.20
2010,07,10,07,44,16.20
2010,07,10,07,45,16.20
2010,07,10,07,46,16.30
2010,07,10,07,47,16.30
2010,07,10,07,48,16.40
2010,07,10,07,49,16.40
2010,07,10,07,50,16.40
2010,07,10,07,51,16.40
2010,07,10,07,52,16.50
2010,07,10,07,53,16.60
2010,07,10,07,54,16.60
2010,07,10,07,55,16.70
2010,07,10,07,56,16.70
2010,07,10,07,57,16.70
2010,07,10,07,58,16.70
2010,07,10,07,59,16.80
2010,07,10,08,00,16.80
2010,07,10,08,01,16.90
2010,07,10,08,02,17.00
2010,07,10,08,03,17.00
2010,07,10,08,04,17.10
2010,07,10,08,05,17.10
2010,07,10,08,06,17.20
2010,07,10,08,07,17.30
2010,07,10,08,08,17.30
2010,07,10,08,09,17.40
2010,07,10,08,10,17.50
2010,07,10,08,11,17.50
2010,07,10,08,12,17.60
2010,07,10,08,13,17.70
2010,07,10,08,14,17.70
2010,07,10,08,15,17.80
2010,07,10,08,16,17.90
2010,07,10,08,17,17.90
2010,07,10,08,18,17.90
2010,07,10,08,19,17.90
2010,07,10,08,20,18.10
2010,07,10,08,21,18.10
2010,07,10,08,22,18.20
2010,07,10,08,23,18.20
2010,07,10,08,24,18.30
2010,07,10,08,25,18.30
2010,07,10,08,26,18.40
2010,07,10,08,27,18.40
2010,07,10,08,28,18.50
2010,07,10,08,29,18.50
2010,07,10,08,30,18.60
2010,07,10,08,31,18.60
2010,07,10,08,32,18.60
2010,07,10,08,33,18.70
2010,07,10,08,34,18.70
2010,07,10,08,35,18.70
2010,07,10,08,36,18.80
2010,07,10,08,37,18.80
2010,07,10,08,38,18.90
2010,07,10,08,39,18.90
2010,07,10,08,40,18.90
2010,07,10,08,41,18.90
2010,07,10,08,42,19.00
2010,07,10,08,43,19.10
2010,07,10,08,44,19.10
2010,07,10,08,45,19.10
2010,07,10,08,46,19.10
2010,07,10,08,47,19.10
2010,07,10,08,48,19.10
2010,07,10,08,49,19.20
2010,07,10,08,50,19.20
2010,07,10,08,51,19.20
2010,07,10,08,52,19.30
2010,07,10,08,53,19.30
2010,07,10,08,54,19.40
2010,07,10,08,55,19.40
2010,07,10,08,56,19.50
2010,07,10,08,57,19.50
2010,07,10,08,58,19.60
2010,07,10,08,59,19.60
2010,07,10,09,00,19.70
2010,07,10,09,01,19.70
2010,07,10,09,02,19.70
2010,07,10,09,03,19.80
2010,07,10,09,04,19.80
2010,07,10,09,05,19.80
2010,07,10,09,06,19.90
2010,07,10,09,07,19.90
2010,07,10,09,08,19.90
2010,07,10,09,09,19.90
2010,07,10,09,10,19.90
2010,07,10,09,11,19.90
2010,07,10,09,12,19.90
2010,07,10,09,13,19.90
2010,07,10,09,14,19.90
2010,07,10,09,15,19.90
2010,07,10,09,16,20.00
2010,07,10,09,17,20.10
2010,07,10,09,18,20.10
2010,07,10,09,19,20.10
2010,07,10,09,20,20.10
2010,07,10,09,21,20.20
2010,07,10,09,22,20.20
2010,07,10,09,23,20.20
2010,07,10,09,24,20.20
2010,07,10,09,25,20.20
2010,07,10,09,26,20.20
2010,07,10,09,27,20.20
2010,07,10,09,28,20.20
2010,07,10,09,29,20.20
2010,07,10,09,30,20.20
2010,07,10,09,31,20.20
2010,07,10,09,32,20.20
2010,07,10,09,33,20.20
2010,07,10,09,34,20.20
2010,07,10,09,35,20.30
2010,07,10,09,36,20.30
2010,07,10,09,37,20.30
2010,07,10,09,38,20.30
2010,07,10,09,39,20.30
2010,07,10,09,40,20.40
2010,07,10,09,41,20.40
2010,07,10,09,42,20.40
2010,07,10,09,43,20.40
2010,07,10,09,44,20.40
2010,07,10,09,45,20.40
2010,07,10,09,46,20.50
2010,07,10,09,47,20.50
2010,07,10,09,48,20.50
2010,07,10,09,49,20.50
2010,07,10,09,50,20.50
2010,07,10,09,51,20.50
2010,07,10,09,52,20.50
2010,07,10,09,53,20.50
2010,07,10,09,54,20.40
2010,07,10,09,55,20.40
2010,07,10,09,56,20.40
2010,07,10,09,57,20.40
2010,07,10,09,58,20.40
2010,07,10,09,59,20.50
2010,07,10,10,00,20.50
2010,07,10,10,01,20.50
2010,07,10,10,02,20.50
2010,07,10,10,03,20.50
2010,07,10,10,04,20.50
2010,07,10,10,05,20.50
2010,07,10,10,06,20.60
2010,07,10,10,07,20.60
2010,07,10,10,08,20.60
2010,07,10,10,09,20.60
2010,07,10,10,10,20.70
2010,07,10,10,11,20.70
2010,07,10,10,12,20.70
2010,07,10,10,13,20.70
2010,07,10,10,14,20.80
2010,07,10,10,15,20.80
2010,07,10,10,16,20.80
2010,07,10,10,17,20.80
2010,07,10,10,18,20.80
2010,07,10,10,19,20.80
2010,07,10,10,20,20.80
2010,07,10,10,21,20.80
2010,07,10,10,22,20.80
2010,07,10,10,23,20.80
2010,07,10,10,24,20.80
2010,07,10,10,25,20.80
2010,07,10,10,26,20.90
2010,07,10,10,27,20.90
2010,07,10,10,28,20.90
2010,07,10,10,29,20.90
2010,07,10,10,30,20.90
2010,07,10,10,31,20.90
2010,07,10,10,32,20.90
2010,07,10,10,33,20.90
2010,07,10,10,34,20.90
2010,07,10,10,35,21.00
2010,07,10,10,36,21.00
2010,07,10,10,37,21.00
2010,07,10,10,38,21.00
2010,07,10,10,39,21.10
2010,07,10,10,40,21.10
2010,07,10,10,41,21.10
2010,07,10,10,42,21.10
2010,07,10,10,43,21.10
2010,07,10,10,44,21.10
2010,07,10,10,45,21.20
2010,07,10,10,46,21.20
2010,07,10,10,47,21.20
2010,07,10,10,48,21.20
2010,07,10,10,49,21.30
2010,07,10,10,50,21.30
2010,07,10,10,51,21.30
2010,07,10,10,52,21.30
2010,07,10,10,53,21.30
2010,07,10,10,54,21.30
2010,07,10,10,55,21.40
2010,07,10,10,56,21.40
2010,07,10,10,57,21.40
2010,07,10,10,58,21.40
2010,07,10,10,59,21.50
2010,07,10,11,00,21.60
2010,07,10,11,01,21.60
2010,07,10,11,02,21.60
2010,07,10,11,03,21.60
2010,07,10,11,04,21.60
2010,07,10,11,05,21.70
2010,07,10,11,06,21.70
2010,07,10,11,07,21.60
2010,07,10,11,08,21.60
2010,07,10,11,09,21.60
2010,07,10,11,10,21.60
2010,07,10,11,11,21.60
2010,07,10,11,12,21.60
2010,07,10,11,13,21.60
2010,07,10,11,14,21.60
2010,07,10,11,15,21.60
2010,07,10,11,16,21.60
2010,07,10,11,17,21.60
2010,07,10,11,18,21.60
2010,07,10,11,19,21.60
2010,07,10,11,20,21.70
2010,07,10,11,21,21.70
2010,07,10,11,22,21.70
2010,07,10,11,23,21.70
2010,07,10,11,24,21.80
2010,07,10,11,25,21.80
2010,07,10,11,26,21.80
2010,07,10,11,27,21.80
2010,07,10,11,28,21.90
2010,07,10,11,29,21.90
2010,07,10,11,30,22.00
2010,07,10,11,31,22.00
2010,07,10,11,32,22.00
2010,07,10,11,33,22.00
2010,07,10,11,34,22.00
2010,07,10,11,35,22.00
2010,07,10,11,36,22.00
2010,07,10,11,37,22.00
2010,07,10,11,38,22.00
2010,07,10,11,39,22.10
2010,07,10,11,40,22.10
2010,07,10,11,41,22.10
2010,07,10,11,42,22.10
2010,07,10,11,43,22.10
2010,07,10,11,44,22.10
2010,07,10,11,45,22.20
2010,07,10,11,46,22.20
2010,07,10,11,47,22.20
2010,07,10,11,48,22.20
2010,07,10,11,49,22.30
2010,07,10,11,50,22.30
2010,07,10,11,51,22.40
2010,07,10,11,52,22.40
2010,07,10,11,53,22.40
2010,07,10,11,54,22.40
2010,07,10,11,55,22.40
2010,07,10,11,56,22.50
2010,07,10,11,57,22.50
2010,07,10,11,58,22.50
2010,07,10,11,59,22.60
2010,07,10,12,00,22.70
2010,07,10,12,01,22.70
2010,07,10,12,02,22.80
2010,07,10,12,03,22.80
2010,07,10,12,04,22.80
2010,07,10,12,05,22.80
2010,07,10,12,06,22.80
2010,07,10,12,07,22.80
2010,07,10,12,08,22.80
2010,07,10,12,09,22.80
2010,07,10,12,10,22.80
2010,07,10,12,11,22.80
2010,07,10,12,12,22.80
2010,07,10,12,13,22.90
2010,07,10,12,14,22.80
2010,07,10,12,15,22.80
2010,07,10,12,16,22.80
2010,07,10,12,17,22.80
2010,07,10,12,18,22.80
2010,07,10,12,19,22.80
2010,07,10,12,20,22.80
2010,07,10,12,21,22.80
2010,07,10,12,22,22.80
2010,07,10,12,23,22.80
2010,07,10,12,24,22.80
2010,07,10,12,25,22.80
2010,07,10,12,26,22.90
2010,07,10,12,27,22.90
2010,07,10,12,28,22.90
2010,07,10,12,29,22.90
2010,07,10,12,30,22.90
2010,07,10,12,31,22.90
2010,07,10,12,32,22.90
2010,07,10,12,33,22.90
2010,07,10,12,34,22.90
2010,07,10,12,35,22.90
2010,07,10,12,36,22.90
2010,07,10,12,37,22.90
2010,07,10,12,38,22.90
2010,07,10,12,39,23.10
2010,07,10,12,40,23.10
2010,07,10,12,41,23.10
2010,07,10,12,42,23.20
2010,07,10,12,43,23.20
2010,07,10,12,44,23.20
2010,07,10,12,45,23.20
2010,07,10,12,46,23.20
2010,07,10,12,47,23.20
2010,07,10,12,48,23.20
2010,07,10,12,49,23.20
2010,07,10,12,50,23.20
2010,07,10,12,51,23.20
2010,07,10,12,52,23.30
2010,07,10,12,53,23.30
2010,07,10,12,54,23.30
2010,07,10,12,55,23.30
2010,07,10,12,56,23.30
2010,07,10,12,57,23.30
2010,07,10,12,58,23.40
2010,07,10,12,59,23.50
2010,07,10,13,00,23.60
2010,07,10,13,01,23.70
2010,07,10,13,02,23.70
2010,07,10,13,03,23.70
2010,07,10,13,04,23.80
2010,07,10,13,05,23.80
2010,07,10,13,06,23.80
2010,07,10,13,07,23.80
2010,07,10,13,08,23.90
2010,07,10,13,09,23.90
2010,07,10,13,10,23.90
2010,07,10,13,11,24.10
2010,07,10,13,12,24.10
2010,07,10,13,13,24.10
2010,07,10,13,14,24.20
2010,07,10,13,15,24.30
2010,07,10,13,16,24.40
2010,07,10,13,17,24.60
2010,07,10,13,18,24.70
2010,07,10,13,19,24.70
2010,07,10,13,20,24.80
2010,07,10,13,21,24.90
2010,07,10,13,22,25.10
2010,07,10,13,23,25.20
2010,07,10,13,24,25.20
2010,07,10,13,25,25.20
2010,07,10,13,26,25.20
2010,07,10,13,27,25.20
2010,07,10,13,28,25.20
2010,07,10,13,29,25.20
2010,07,10,13,30,25.20
2010,07,10,13,31,25.20
2010,07,10,13,32,25.20
2010,07,10,13,33,25.30
2010,07,10,13,34,25.40
2010,07,10,13,35,25.40
2010,07,10,13,36,25.40
2010,07,10,13,37,25.40
2010,07,10,13,38,25.30
2010,07,10,13,39,25.40
2010,07,10,13,40,25.40
2010,07,10,13,41,25.50
2010,07,10,13,42,25.60
2010,07,10,13,43,25.60
2010,07,10,13,44,25.70
2010,07,10,13,45,25.70
2010,07,10,13,46,25.80
2010,07,10,13,47,25.80
2010,07,10,13,48,25.80
2010,07,10,13,49,25.80
2010,07,10,13,50,25.80
2010,07,10,13,51,25.80
2010,07,10,13,52,25.80
2010,07,10,13,53,25.70
2010,07,10,13,54,25.70
2010,07,10,13,55,25.70
2010,07,10,13,56,25.80
2010,07,10,13,57,25.80
2010,07,10,13,58,25.80
2010,07,10,13,59,25.80
2010,07,10,14,00,25.80
2010,07,10,14,01,25.80
2010,07,10,14,02,25.70
2010,07,10,14,03,25.70
2010,07,10,14,04,25.70
2010,07,10,14,05,25.70
2010,07,10,14,06,25.70
2010,07,10,14,07,25.80
2010,07,10,14,08,25.80
2010,07,10,14,09,25.80
2010,07,10,14,10,25.80
2010,07,10,14,11,25.80
2010,07,10,14,12,25.80
2010,07,10,14,13,25.80
2010,07,10,14,14,25.80
2010,07,10,14,15,25.90
2010,07,10,14,16,25.90
2010,07,10,14,17,25.90
2010,07,10,14,18,25.90
2010,07,10,14,19,25.90
2010,07,10,14,20,25.90
2010,07,10,14,21,25.90
2010,07,10,14,22,25.90
2010,07,10,14,23,25.80
2010,07,10,14,24,25.80
2010,07,10,14,25,25.80
2010,07,10,14,26,25.80
2010,07,10,14,27,25.90
2010,07,10,14,28,26.00
2010,07,10,14,29,26.20
2010,07,10,14,30,26.30
2010,07,10,14,31,26.30
2010,07,10,14,32,26.40
2010,07,10,14,33,26.40
2010,07,10,14,34,26.40
2010,07,10,14,35,26.40
2010,07,10,14,36,26.40
2010,07,10,14,37,26.30
2010,07,10,14,38,26.40
2010,07,10,14,39,26.30
2010,07,10,14,40,26.30
2010,07,10,14,41,26.30
2010,07,10,14,42,26.30
2010,07,10,14,43,26.30
2010,07,10,14,44,26.30
2010,07,10,14,45,26.30
2010,07,10,14,46,26.20
2010,07,10,14,47,26.20
2010,07,10,14,48,26.20
2010,07,10,14,49,26.20
2010,07,10,14,50,26.30
2010,07,10,14,51,26.40
2010,07,10,14,52,26.40
2010,07,10,14,53,26.40
2010,07,10,14,54,26.50
2010,07,10,14,55,26.60
2010,07,10,14,56,26.60
2010,07,10,14,57,26.60
2010,07,10,14,58,26.60
2010,07,10,14,59,26.70
2010,07,10,15,00,26.70
2010,07,10,15,01,26.80
2010,07,10,15,02,26.80
2010,07,10,15,03,26.80
2010,07,10,15,04,26.90
2010,07,10,15,05,26.90
2010,07,10,15,06,26.90
2010,07,10,15,07,27.10
2010,07,10,15,08,27.10
2010,07,10,15,09,27.20
2010,07,10,15,10,27.20
2010,07,10,15,11,27.30
2010,07,10,15,12,27.30
2010,07,10,15,13,27.30
2010,07,10,15,14,27.30
2010,07,10,15,15,27.30
2010,07,10,15,16,27.30
2010,07,10,15,17,27.20
2010,07,10,15,18,27.10
2010,07,10,15,19,27.10
2010,07,10,15,20,27.10
2010,07,10,15,21,27.10
2010,07,10,15,22,27.20
2010,07,10,15,23,27.20
2010,07,10,15,24,27.20
2010,07,10,15,25,27.30
2010,07,10,15,26,27.30
2010,07,10,15,27,27.30
2010,07,10,15,28,27.30
2010,07,10,15,29,27.30
2010,07,10,15,30,27.30
2010,07,10,15,31,27.30
2010,07,10,15,32,27.30
2010,07,10,15,33,27.30
2010,07,10,15,34,27.30
2010,07,10,15,35,27.30
2010,07,10,15,36,27.30
2010,07,10,15,37,27.30
2010,07,10,15,38,27.40
2010,07,10,15,39,27.40
2010,07,10,15,40,27.40
2010,07,10,15,41,27.30
2010,07,10,15,42,27.30
2010,07,10,15,43,27.30
2010,07,10,15,44,27.30
2010,07,10,15,45,27.30
2010,07,10,15,46,27.30
2010,07,10,15,47,27.30
2010,07,10,15,48,27.30
2010,07,10,15,49,27.30
2010,07,10,15,50,27.30
2010,07,10,15,51,27.20
2010,07,10,15,52,27.20
2010,07,10,15,53,27.20
2010,07,10,15,54,27.10
2010,07,10,15,55,27.10
2010,07,10,15,56,27.10
2010,07,10,15,57,27.00
2010,07,10,15,58,26.90
2010,07,10,15,59,26.90
2010,07,10,16,00,26.90
2010,07,10,16,01,26.90
2010,07,10,16,02,26.90
2010,07,10,16,03,26.80
2010,07,10,16,04,26.80
2010,07,10,16,05,26.70
2010,07,10,16,06,26.70
2010,07,10,16,07,26.60
2010,07,10,16,08,26.50
2010,07,10,16,09,26.40
2010,07,10,16,10,26.30
2010,07,10,16,11,26.30
2010,07,10,16,12,26.30
2010,07,10,16,13,26.30
2010,07,10,16,14,26.30
2010,07,10,16,15,26.30
2010,07,10,16,16,26.30
2010,07,10,16,17,26.30
2010,07,10,16,18,26.30
2010,07,10,16,19,26.30
2010,07,10,16,20,26.20
2010,07,10,16,21,26.20
2010,07,10,16,22,26.10
2010,07,10,16,23,26.00
2010,07,10,16,24,26.00
2010,07,10,16,25,25.90
2010,07,10,16,26,25.90
2010,07,10,16,27,25.90
2010,07,10,16,28,25.90
2010,07,10,16,29,25.80
2010,07,10,16,30,25.80
2010,07,10,16,31,25.80
2010,07,10,16,32,25.80
2010,07,10,16,33,25.80
2010,07,10,16,34,25.80
2010,07,10,16,35,25.80
2010,07,10,16,36,25.80
2010,07,10,16,37,25.70
2010,07,10,16,38,25.70
2010,07,10,16,39,25.70
2010,07,10,16,40,25.60
2010,07,10,16,41,25.60
2010,07,10,16,42,25.50
2010,07,10,16,43,25.50
2010,07,10,16,44,25.60
2010,07,10,16,45,25.60
2010,07,10,16,46,25.60
2010,07,10,16,47,25.60
2010,07,10,16,48,25.70
2010,07,10,16,49,25.70
2010,07,10,16,50,25.70
2010,07,10,16,51,25.80
2010,07,10,16,52,25.80
2010,07,10,16,53,25.90
2010,07,10,16,54,25.90
2010,07,10,16,55,25.90
2010,07,10,16,56,25.90
2010,07,10,16,57,25.90
2010,07,10,16,58,25.90
2010,07,10,16,59,25.90
2010,07,10,17,00,25.90
2010,07,10,17,01,25.90
2010,07,10,17,02,25.90
2010,07,10,17,03,25.90
2010,07,10,17,04,25.90
2010,07,10,17,05,25.90
2010,07,10,17,06,25.90
2010,07,10,17,07,25.90
2010,07,10,17,08,25.90
2010,07,10,17,09,25.90
2010,07,10,17,10,25.90
2010,07,10,17,11,25.90
2010,07,10,17,12,25.90
2010,07,10,17,13,25.90
2010,07,10,17,14,25.90
2010,07,10,17,15,25.90
2010,07,10,17,16,25.90
2010,07,10,17,17,25.90
2010,07,10,17,18,25.90
2010,07,10,17,19,25.90